Regional Weather Roundup
Issued by NWS

Home | Current Version | Previous Version | Graphics & Text | Print | Product List | Glossary Off
Versions: 1 2 3 4 5 6 7 8 9 10 11 12 13 14 15 16 17 18 19 20 21 22 23 24 25 26 27 28 29 30 31 32 33 34 35 36 37 38 39 40 41 42 43 44 45 46 47 48 49 50

000
ASUS45 KBOU 280107
RWRCO

WEATHER ROUNDUP FOR COLORADO
NATIONAL WEATHER SERVICE DENVER/BOULDER CO
700 PM MDT WED MAY 27 2015

NOTE: "FAIR" INDICATES FEW OR NO CLOUDS BELOW 12000 FEET WITH NO
SIGNIFICANT WEATHER AND/OR OBSTRUCTIONS TO VISIBILITY.

COZ001>005-013-030-031-280200-
...NORTHWEST COLORADO...

CITY           SKY/WX    TMP DP  RH WIND       PRES   REMARKS
CRAIG          CLOUDY    63  43  48 CALM      30.10R
HAYDEN         PTSUNNY   57  41  54 E12       30.12S
MEEKER         LGT RAIN  59  50  72 NW7       30.12R
MOUNT WERNER   NOT AVBL
STEAMBOAT SPGS PTSUNNY   57  40  53 CALM      30.15R
WALDEN         PTSUNNY   52  34  50 SW7       30.20R
$$

COZ006>008-011-280200-
...WEST CENTRAL VALLEYS...

CITY           SKY/WX    TMP DP  RH WIND       PRES   REMARKS
GRAND JUNCTION PTSUNNY   71  41  33 SE6       29.99S
MONTROSE       PTSUNNY   67  41  38 SE20G28   30.11S
EAGLE          PTSUNNY   61  39  44 CALM      30.14S
RIFLE          PTSUNNY   68  47  46 E7        30.04R
DELTA          PTSUNNY   72  39  30 SE15G22   30.05R
NUCLA          PTSUNNY   68  34  28 E3        30.11S
$$

COZ017>023-064>068-280200-
...SOUTHWEST COLORADO...

CITY           SKY/WX    TMP DP  RH WIND       PRES   REMARKS
DURANGO        PTSUNNY   69  29  22 W13       30.10F
CORTEZ         SUNNY     71  39  31 S8        30.07S
PAGOSA SPRINGS PTSUNNY   67  17  14 SW10      30.17S
TELLURIDE      CLOUDY    51  37  59 SE3       30.30R
WOLF CREEK PAS NOT AVBL
$$

COZ009-010-012-014-032>034-037-058>063-280200-
...CENTRAL COLORADO...

CITY           SKY/WX    TMP DP  RH WIND       PRES   REMARKS
ASPEN          CLOUDY    57  36  45 W8        30.18R
BUENA VISTA    CLOUDY    57  35  44 CALM      30.21R
COPPER MTN     PTSUNNY   45  32  61 W10       30.41R
BERTHOUD PASS  FAIR      34  28  80 W18       30.43R WCI  23
COTTONWOOD PAS CLOUDY    52  28  40 W18G30    30.31R
GUNNISON       CLOUDY    46  37  71 N7G17     30.28F
KREMMLING      PTSUNNY   55  37  50 N12       30.19R
LEADVILLE      CLOUDY    45  29  53 S17G24    30.29R
SALIDA         CLOUDY    60  35  38 W22G30    30.27R
SUNLIGHT       CLOUDY    43  34  70 S3        30.35S
WILKERSON PASS PTSUNNY   45  30  57 SW8G16    30.38R
$$

COZ069>075-280200-
...SAN LUIS VALLEY/SANGRE DE CRISTO MOUNTAINS...

CITY           SKY/WX    TMP DP  RH WIND       PRES   REMARKS
ALAMOSA        PTSUNNY   63  33  32 N10       30.15R
LA VETA PASS   LGT RAIN N/A N/A N/A MISG      30.32R
SAGUACHE       PTSUNNY   59  37  44 W7G18     30.21R
$$

COZ035-036-038>040-280200-
...NORTHERN COLORADO FRONT RANGE...

CITY           SKY/WX    TMP DP  RH WIND       PRES   REMARKS
DENVER INTL AP PTSUNNY   66  49  54 SE7       30.02R THUNDER
DMNS CITY PARK   N/A     63  48  57 E5G12     30.01R
AURORA         TSTM      70  40  33 E3        30.04R
FRONT RANGE AP PTSUNNY   70  48  46 SE6       30.03R
ERIE MUNI ARPT PTSUNNY   74  39  27 E6        29.99R
BOULDER MUN AP MOSUNNY   72  43  35 NE5       30.00R
CENTENNIAL     PTSUNNY   68  45  43 NE6       30.04R
BROOMFIELD     PTSUNNY   73  39  29 CALM      30.02
FORT COLLINS   MOSUNNY   72  45  37 E5        29.98R
LONGMONT       MOSUNNY   75  44  32 E3        30.00R
$$

COZ041-046-047-076>085-087-088-280200-
...PIKES PEAK/PALMER DIVIDE AND SOUTHERN FOOTHILLS...

CITY           SKY/WX    TMP DP  RH WIND       PRES   REMARKS
COLO. SPRINGS  PTSUNNY   68  38  33 SW5       30.04F
A. F. ACADEMY  MOSUNNY   68  33  28 SW7       30.05S
ELLICOTT       NOT AVBL
FALCON         PTSUNNY   67  37  33 S9        30.10S
FORT CARSON    NOT AVBL
LIMON          PTSUNNY   64  52  64 SE7       30.03S
MONUMENT HILL  MOSUNNY   59  46  63 NW9       30.11S
TRINIDAD       PTSUNNY   59  50  72 S9        30.06S
$$

COZ042>045-048>051-090-091-280200-
...NORTHEAST COLORADO...

CITY           SKY/WX    TMP DP  RH WIND       PRES   REMARKS
GREELEY ARPT   MOSUNNY   73  43  33 NE7       29.98S
AKRON          SUNNY     72  44  36 S8        29.99R
BURLINGTON     MOSUNNY   66  55  67 SE22G33   30.02R
WRAY           CLOUDY    66  57  72 E21G29    30.02R
STERLING       SUNNY     68  57  68 E12G20    29.98R
HOLYOKE        CLOUDY    64  52  63 SE18G26   30.03R
FORT MORGAN    MOSUNNY   71  53  53 E14       29.99R
$$

COZ086-089-092>099-280200-
...SOUTHEAST COLORADO...

CITY           SKY/WX    TMP DP  RH WIND       PRES   REMARKS
PUEBLO         PTSUNNY   70  48  45 SW9       30.00R
LA JUNTA       PTSUNNY   75  47  36 W15       29.99R
LAMAR          CLOUDY    72  52  49 S10       29.92F
SPRINGFIELD      N/A     64  53  67 SE12      30.02R
$$



USA.gov is the U.S. government's official web portal to all federal, state and local government web resources and services.